Regional Weather Roundup
Issued by NWS

Home | Current Version | Previous Version | Graphics & Text | Print | Product List | Glossary Off
Versions: 1 2 3 4 5 6 7 8 9 10 11 12 13 14 15 16 17 18 19 20 21 22 23 24 25 26 27 28 29 30 31 32 33 34 35 36 37 38 39 40 41 42 43 44 45 46 47 48 49 50

000
ASUS43 KDMX 270307
RWRIA

WEATHER ROUNDUP FOR IOWA
NATIONAL WEATHER SERVICE DES MOINES IA
900 PM CST WED NOV 26 2014

NOTE: "FAIR" INDICATES FEW OR NO CLOUDS BELOW 12,000 FEET WITH NO
SIGNIFICANT WEATHER AND/OR OBSTRUCTIONS TO VISIBILITY.

* - THESE STATIONS ARE NOT NWS STATIONS...THUS NOT UNDER NWS
QUALITY CONTROL.  THEY ALSO DO NOT REPORT WEATHER SUCH
AS PRECIPITATION OR FOG.

IAZ001>003-012>014-020>022-031>034-043>046-270400-
   NORTHWEST IOWA

CITY           SKY/WX    TMP DP  RH WIND       PRES   REMARKS
CARROLL *      CLOUDY    21  18  86 N15G22    30.35R WCI   8
CHEROKEE *     PTCLDY    12   9  85 N9        30.39S WCI   0
DENISON *      CLOUDY    19  16  86 N10       30.36R WCI   8
LE MARS *      MOCLDY    10   7  85 N3        30.43R
ORANGE CITY *  MOCLDY    14   7  73 N8        30.39R WCI   3
SHELDON *      CLOUDY    12   3  67 N14       30.37S WCI  -3
SIOUX CITY     CLOUDY    18  11  74 N14       30.43R WCI   4
SPENCER        CLOUDY    12   6  77 NW13      30.37R WCI  -3
STORM LAKE *   CLOUDY    16  12  86 N10       30.36R WCI   3
$$

IAZ055>058-069>071-079>083-090>094-270400-
   SOUTHWEST IOWA

CITY           SKY/WX    TMP DP  RH WIND       PRES   REMARKS
ATLANTIC *     CLOUDY    23  19  86 N10G20    30.36R WCI  12
AUDUBON *      CLEAR     21  16  79 N10       30.34R WCI  10
CLARINDA *     CLOUDY    25  21  86 N16G28    30.37R WCI  12
COUNCIL BLFS * CLOUDY    23  19  86 NW10G18   30.38R WCI  12
CRESTON *      CLOUDY    23  19  86 N21G29    30.31R WCI   8
HARLAN  *      CLOUDY    23  21  93 N15       30.40R WCI  10
LAMONI         CLOUDY    27  23  85 N21G26    30.28R WCI  13
RED OAK *      CLOUDY    25  19  80 NW16G23   30.37S WCI  12
SHENANDOAH *   CLOUDY    27  21  80 N13       30.40R WCI  16
$$

IAZ047>049-059>061-072>074-084-270400-
   CENTRAL IOWA

CITY           SKY/WX    TMP DP  RH WIND       PRES   REMARKS
AMES           CLOUDY    25  21  85 N17G26    30.31R FOG     WCI  12
ANKENY *       FLURRIES  27  23  86 NW16G23   30.30R WCI  14
CHARITON *     LGT RAIN  30  28  93 N13       30.27R WCI  20
DES MOINES     LGT SNOW  25  21  85 NW16      30.31R FOG     WCI  12
GRINNELL*      LGT SNOW  27  27 100 N12       30.26R WCI  16
KNOXVILLE *    LGT SNOW  28  27  93 N9        30.26R WCI  20
MARSHALLTOWN   LGT SNOW  26  23  88 NW14      30.27R FOG     WCI  14
PELLA *        LGT SNOW  28  27  93 N8        30.28R WCI  20
PERRY *        CLOUDY    23  21  93 NW17G24   30.34R WCI   9
$$

IAZ004>006-015-016-023>025-035-036-270400-
   NORTH CENTRAL IOWA

CITY           SKY/WX    TMP DP  RH WIND       PRES   REMARKS
ALGONA *       CLOUDY    16  12  86 N17G24    30.34R WCI   0
CLARION *      CLOUDY    18  16  93 NW16      30.32R WCI   3
ESTHERVILLE    CLOUDY    11   6  81 NW14      30.35S WCI  -5
FORT DODGE *   CLOUDY    18  12  79 NW9       30.35R WCI   6
MASON CITY     CLOUDY    20  17  88 NW18      30.31R WCI   5
FOREST CITY *  CLOUDY    19  18  93 NW15G21   30.31R WCI   5
IOWA FALLS *   CLOUDY    27  23  86 N17       30.29R WCI  14
$$

IAZ007>011-017>019-026>030-037>042-050>054-066-270400-
   NORTHEAST IOWA

CITY           SKY/WX    TMP DP  RH WIND       PRES   REMARKS
CEDAR RAPIDS   CLOUDY    26  24  92 N8        30.23R FOG     WCI  18
CHARLES CITY * CLOUDY    25  21  86 N8        30.26S WCI  16
CLINTON *      MOCLDY    23  18  80 N8        30.24R WCI  14
DECORAH *      MIX PCPN  23  21  93 NW8       30.23R WCI  14
DUBUQUE        CLOUDY    23  20  88 N9        30.20S WCI  13
MONTICELLO *   LGT SNOW  27  23  86 N5        30.22S WCI  21
OELWEIN *      CLOUDY    25  23  93 NW10      30.25R WCI  15
WATERLOO       CLOUDY    25  23  92 N17       30.27R WCI  12
$$

IAZ064-065-067-068-078-270400-
   EAST CENTRAL IOWA

CITY           SKY/WX    TMP DP  RH WIND       PRES   REMARKS
DAVENPORT      CLOUDY    25  19  78 N7        30.22R WCI  17
IOWA CITY      CLOUDY    27  25  92 N7        30.25R FOG     WCI  19
MT. PLEASANT * CLOUDY    27  25  93 N10       30.23R FOG     WCI  17
MUSCATINE *    CLOUDY    28  25  86 NE9       30.24R HAZE    WCI  20
QUAD CITIES    CLOUDY    27  20  75 N5        30.22R WCI  22
$$

IAZ062-063-075>077-085>089-095>099-270400-
   SOUTHEAST IOWA

CITY           SKY/WX    TMP DP  RH WIND       PRES   REMARKS
BURLINGTON     CLOUDY    28  25  88 NE13      30.20R FOG     WCI  17
FAIRFIELD *    LGT SNOW  28  25  86 N8        30.24R WCI  20
FORT MADISON * LGT SNOW  30  28  93 N9        30.21R WCI  22
KEOKUK *       LGT SNOW  30  28  93 NE12      30.19R WCI  21
OSKALOOSA *    LGT SNOW  27  25  93 N7        30.25R WCI  19
CENTERVILLE *  LGT RAIN  28  28 100 N10G17    30.25R WCI  19
OTTUMWA        LGT SNOW  28  25  88 N9        30.25R FOG     WCI  19
WASHINGTON *   LGT SNOW  28  28 100 NE8       30.23R WCI  20
$$

ABBREVIATIONS USED IN REMARKS
   TC - TEMPERATURES IN CELSIUS
  WCI - WIND CHILL INDEX
   HX - HEAT INDEX
  VSB - VISIBILITY
$$




USA.gov is the U.S. government's official web portal to all federal, state and local government web resources and services.